SCP
0 0 0 0 0 0 0 0 0 0 0 0 0 0 0 0 0 0 0 0 0 0 1 1 1 1 1 1 1 1 1 1 1 1 1 1 1 1 1 1 0 0 0
0 0 0 0 0 0 0 0 0 0 0 0 0 0 0 0 0 0 0 0 0 0 0 1 1 1 1 1 1 1 1 1 1 1 1 1 1 1 1 1 1 0 0
0 0 0 0 0 0 0 0 0 0 0 0 0 0 0 0 0 0 0 0 0 0 0 0 0 0 0 0 0 1 1 1 1 1 1 1 1 1 1 1 1 1 1
0 0 0 0 0 0 0 0 0 0 0 0 0 0 0 0 0 0 0 0 0 0 0 0 0 0 0 0 0 0 1 1 1 1 1 1 1 1 1 1 1 1 1
0 0 0 0 0 0 0 0 0 0 0 0 0 0 0 0 0 0 0 0 0 0 0 0 0 0 0 0 0 0 1 1 1 1 1 1 1 1 1 1 1 1 1
0 0 0 0 0 0 0 0 0 0 0 0 0 0 0 0 0 0 0 0 0 0 0 0 0 0 0 0 0 0 0 1 1 1 1 1 1 1 1 1 1 1 1
0 0 0 0 0 0 0 0 0 0 0 0 0 0 0 0 0 0 0 0 0 0 0 0 0 0 0 0 0 0 0 0 1 1 1 1 1 1 1 1 1 1 1
0 0 0 0 0 0 0 0 0 0 0 0 0 0 0 0 0 0 0 0 0 0 0 0 0 0 0 0 0 0 0 0 0 0 1 1 1 1 1 1 0 1 1
0 0 0 0 0 0 0 0 0 0 0 0 0 0 0 0 0 0 0 0 0 0 0 0 0 0 0 0 0 0 0 0 0 0 0 1 0 0 0 0 1 1 1
0 0 0 0 0 0 0 0 0 0 0 0 0 0 0 0 0 0 0 0 0 0 0 0 0 0 0 0 0 0 0 0 0 0 0 0 0 0 0 0 0 0 0
0 0 0 0 0 0 0 0 0 0 0 0 0 0 0 0 0 0 0 0 0 0 0 0 0 0 0 0 0 0 0 0 0 0 0 0 0 0 0 0 0 0 0
0 0 0 0 0 0 0 0 0 0 0 0 0 0 0 0 0 0 0 0 0 0 0 0 0 0 0 0 0 0 0 0 0 0 0 0 0 0 0 0 0 0 0
0 0 0 0 0 0 0 0 0 0 0 0 0 0 0 0 0 0 0 0 0 0 0 0 0 0 0 0 0 0 0 0 0 0 0 0 0 0 0 0 0 0 0
0 0 0 0 0 0 0 0 0 0 0 0 0 0 0 0 0 0 0 0 0 0 0 0 0 0 0 0 0 0 0 0 0 0 0 0 0 0 0 0 0 0 0
0 0 0 0 0 0 0 0 0 0 0 0 0 0 0 0 0 0 0 0 0 0 0 0 0 0 0 0 0 0 0 0 0 0 0 0 0 0 0 0 0 0 0
0 0 0 0 0 0 0 0 0 0 0 0 0 0 0 0 0 0 0 0 0 0 0 0 0 0 0 0 0 0 0 0 0 0 0 0 0 0 0 0 0 0 0
0 0 0 0 0 0 0 0 0 0 0 0 0 0 0 0 0 0 0 0 0 0 0 0 0 0 0 0 0 0 0 0 0 0 0 0 0 0 0 0 0 0 0
0 0 0 0 0 0 0 0 0 0 0 0 0 0 0 0 0 0 0 0 0 0 0 0 0 0 0 0 0 0 0 0 0 0 0 0 0 0 0 0 0 0 0
0 0 0 0 0 0 0 0 0 0 0 0 0 0 0 0 0 0 -0 0 0 0 0 0 0 0 0 0 0 0 0 0 0 0 0 0 0 0 0 0 0 0 0
0 0 0 0 0 0 0 0 0 0 0 0 0 0 0 0 0 0 0 0 0 0 0 0 0 0 0 0 0 0 0 0 0 0 0 0 0 0 0 0 0 0 0
0 0 0 0 0 0 0 0 0 0 0 -0 -0 -0 0 0 0 0 0 0 0 0 0 0 0 0 0 0 0 0 0 0 0 0 0 0 0 0 0 0 0 0 0
0 0 0 0 0 0 0 0 0 0 0 0 0 0 0 0 0 0 0 0 0 0 0 0 0 0 0 0 0 0 0 0 0 0 0 0 0 0 0 0 0 0 0
0 0 0 0 0 0 0 0 0 0 0 0 0 0 0 0 0 0 0 0 0 0 0 0 0 0 0 0 0 0 0 0 0 0 0 0 0 0 0 0 0 0 0
0 0 0 0 0 0 0 0 0 0 0 0 0 0 0 0 0 0 0 0 0 0 0 0 0 0 0 0 0 0 0 0 0 0 0 0 0 0 0 0 0 0 0
0 0 0 0 0 0 0 0 0 0 0 0 0 0 0 0 0 0 0 0 0 0 0 0 0 0 0 0 0 0 0 0 0 0 0 0 0 0 0 0 0 0 0
0 0 0 0 0 0 0 0 0 0 0 0 0 0 0 0 0 0 0 0 0 0 0 0 0 0 0 0 0 0 0 0 0 0 0 0 0 0 0 0 0 0 0
Wind_Speed
2 2 2 2 2 2 2 2 3 3 3 3 3 4 4 4 4 4 4 9 9 8 7 8 8 7 7 7 7 8 7 6 7 7 6 6 6 6 6 6 6 6 6
2 2 2 2 2 2 2 2 2 2 2 3 3 4 4 3 3 3 3 5 9 9 8 8 8 8 7 8 7 7 7 6 6 6 6 6 5 5 5 5 6 6 6
2 2 2 2 1 2 2 2 2 2 2 3 3 3 3 3 3 3 3 3 4 8 9 9 8 8 7 7 6 7 7 6 5 5 5 5 5 5 5 5 5 6 6
3 3 2 1 1 2 2 2 2 2 2 2 2 2 2 3 3 3 3 3 3 4 6 9 9 9 8 6 6 6 6 6 6 5 5 5 5 6 5 5 5 6 6
3 3 2 2 2 2 2 2 2 2 2 2 2 2 2 2 2 3 4 4 4 4 3 6 9 9 8 7 7 7 7 6 6 6 5 6 6 6 6 6 6 7 7
3 3 3 2 2 2 2 2 2 2 2 2 3 3 2 2 2 2 2 3 3 4 4 4 4 6 9 8 7 7 7 8 7 6 6 6 6 6 6 7 7 7 7
3 3 3 3 2 2 2 3 3 3 2 2 2 2 2 2 2 2 2 2 3 3 3 3 2 2 3 7 7 7 7 7 7 8 7 7 7 7 7 8 8 8 8
3 3 3 3 3 2 3 3 3 2 1 1 2 1 1 2 2 2 1 1 2 2 3 3 3 2 2 2 5 7 7 7 8 8 8 8 8 8 8 8 8 9 9
3 3 3 4 3 3 3 3 4 4 3 1 1 2 2 2 1 1 1 1 1 1 1 1 2 2 2 2 2 5 6 7 8 8 8 9 8 9 8 9 9 10 10
4 3 4 4 4 3 4 3 3 3 4 2 1 0 1 2 2 1 2 1 1 1 1 1 1 1 1 1 2 4 6 6 7 7 8 9 9 9 9 10 10 10 10
3 4 4 4 4 3 4 4 3 3 3 3 2 2 1 1 1 2 2 2 2 2 1 1 1 1 1 1 1 3 5 6 7 7 8 9 9 9 10 10 11 11 11
3 4 4 4 4 3 4 4 4 4 3 3 2 2 3 2 2 2 2 2 3 2 2 1 1 1 1 1 2 4 5 7 7 7 8 8 9 10 10 10 11 11 12
3 5 5 5 4 4 4 4 4 4 4 4 4 3 2 2 2 2 2 1 2 2 2 1 2 1 1 1 2 4 5 7 8 8 8 8 9 10 10 11 11 12 12
5 5 5 5 5 5 4 4 3 4 4 4 4 3 2 2 2 3 3 2 1 2 2 3 1 2 1 1 3 5 4 7 8 8 9 9 10 10 11 11 12 12 12
4 5 5 5 5 5 5 5 4 4 4 4 4 4 3 2 2 2 2 3 3 2 3 2 2 2 2 2 4 2 3 7 9 9 9 10 10 11 11 12 12 13 13
5 5 5 6 6 5 5 5 4 4 4 3 3 4 3 2 2 2 2 2 2 3 3 2 3 2 2 2 5 3 4 9 8 9 10 10 11 11 12 12 13 13 13
6 6 6 6 6 6 5 5 5 4 5 4 3 4 4 3 3 2 2 2 2 2 4 3 2 2 3 3 4 3 4 4 5 9 10 11 11 12 12 13 13 13 13
6 6 6 6 6 6 6 6 6 6 6 5 5 4 4 3 4 3 3 3 3 3 4 5 3 2 3 3 3 4 4 4 4 8 10 11 11 12 13 13 13 12 12
6 6 6 7 6 6 6 6 6 6 5 5 5 5 5 5 5 4 4 4 3 3 3 4 4 2 2 2 3 4 4 4 4 6 8 9 11 12 12 12 12 12 12
7 7 7 6 6 6 6 6 5 5 5 5 5 5 5 6 6 5 4 4 4 3 3 3 4 3 2 2 2 3 4 3 4 4 6 8 10 11 11 11 11 11 12
6 6 5 5 5 5 5 6 6 6 5 5 4 4 5 6 7 6 4 4 4 4 3 3 4 3 3 2 3 2 4 4 4 2 4 4 4 4 5 8 10 11 13
4 4 5 5 5 5 7 9 7 6 5 5 5 5 5 5 6 8 8 7 6 5 5 4 4 5 5 3 2 2 3 3 4 1 3 5 3 5 4 4 9 12 13
4 4 4 4 4 4 7 8 8 6 5 5 6 5 4 4 5 4 6 6 6 7 7 5 6 6 5 4 3 3 3 3 5 2 2 5 3 5 4 6 12 12 12
4 4 4 4 4 4 6 6 7 5 4 5 5 5 5 4 4 5 4 3 4 4 5 5 5 5 4 3 3 3 3 4 4 3 2 4 3 4 5 5 10 12 12
3 3 3 4 4 3 5 6 5 3 3 4 4 4 4 4 6 6 4 4 4 4 4 5 5 6 6 5 3 1 1 2 4 3 2 2 3 3 4 4 6 11 12
3 2 2 2 3 3 4 5 6 3 3 3 3 3 5 6 7 7 5 5 5 4 2 2 3 5 4 4 5 4 3 3 3 3 2 2 2 2 5 3 3 4 6
Wind_Direction
111 99 86 71 63 64 68 68 67 62 51 42 50 54 46 40 35 27 13 25 33 40 48 51 54 53 50 47 44 42 52 59 57 48 46 44 38 33 32 33 26 20 17
125 116 105 95 80 77 78 81 77 73 59 49 51 52 50 40 39 33 24 17 23 31 42 46 46 44 44 42 39 36 37 53 54 47 41 37 28 25 24 17 13 11 8
134 127 121 111 105 90 85 81 74 72 69 58 54 50 48 42 35 28 26 25 14 20 33 41 41 39 36 36 33 31 25 34 38 36 33 25 17 11 7 2 357 357 356
148 142 133 132 129 115 102 97 90 77 67 62 54 45 41 40 37 31 33 33 27 21 21 33 36 35 32 32 29 24 19 27 29 27 23 15 9 360 350 349 346 344 344
160 151 148 152 140 121 115 115 93 92 86 69 63 50 39 37 32 38 47 42 36 30 22 22 26 28 29 31 30 26 19 18 19 19 14 8 4 359 352 344 341 339 336
170 160 154 157 144 128 124 116 109 86 99 95 75 53 35 35 39 39 43 43 38 32 25 22 18 16 18 20 19 20 19 16 11 6 359 353 352 347 344 344 338 336 333
173 166 159 159 157 153 150 136 119 104 86 92 80 44 22 35 48 34 34 45 36 27 26 22 23 22 6 6 7 9 9 8 9 7 359 347 343 337 332 336 338 331 330
172 168 163 167 165 151 145 146 134 121 114 110 114 114 14 349 6 19 21 45 31 22 21 19 18 18 16 3 353 360 359 360 359 355 353 348 343 334 327 328 330 330 326
174 171 172 164 167 164 170 172 162 151 155 150 101 142 153 217 295 322 345 15 10 16 358 359 7 3 12 12 344 341 352 350 349 347 343 341 339 338 332 325 323 327 324
182 177 173 170 172 173 174 179 169 161 155 169 161 87 131 150 162 288 308 319 320 296 297 316 331 337 360 2 346 341 345 343 342 340 338 336 333 335 334 330 323 323 325
191 184 180 176 181 183 182 178 171 164 164 168 170 154 123 94 135 170 265 304 319 289 271 258 272 300 328 348 328 337 344 338 335 334 331 330 329 327 329 328 326 324 324
204 193 186 185 186 188 190 187 182 177 178 176 173 166 163 162 177 176 213 270 288 290 282 254 245 267 279 281 308 332 336 332 328 325 324 323 321 321 321 321 320 320 321
211 204 192 193 193 194 192 184 182 185 182 183 186 188 189 188 164 165 170 232 287 295 292 270 241 248 275 288 292 314 318 319 318 318 318 315 314 314 315 316 315 314 315
209 200 194 195 196 192 188 182 185 191 185 190 194 188 191 194 180 175 168 161 265 296 276 267 277 242 268 286 284 303 305 306 306 307 307 307 308 309 308 309 309 309 310
198 194 194 193 194 190 188 182 191 196 190 193 196 194 194 193 183 187 177 172 176 233 272 259 263 263 266 277 287 297 292 294 298 299 301 302 302 302 303 303 303 303 305
194 189 194 195 193 191 188 187 192 190 186 194 189 189 199 194 187 182 187 190 196 199 241 259 254 277 289 286 290 294 285 295 293 294 295 296 295 297 299 300 299 299 300
195 196 197 196 195 193 189 190 196 185 191 197 195 195 204 191 189 188 187 189 203 201 237 269 258 276 268 274 296 288 283 281 285 288 290 290 291 294 297 298 298 298 300
198 199 194 194 197 196 191 193 197 193 194 200 203 198 206 194 197 195 193 202 209 210 220 256 273 265 260 270 280 287 290 285 280 284 288 287 289 293 293 294 295 296 298
195 194 192 195 197 198 196 197 197 195 198 202 201 202 207 195 205 205 200 205 213 218 220 241 265 266 270 278 291 290 288 286 286 288 290 288 288 290 291 291 293 295 297
193 193 196 197 198 196 197 196 192 192 195 203 205 207 209 205 208 206 208 210 210 214 218 237 258 270 270 271 273 283 298 296 296 296 288 291 291 292 290 290 292 293 293
197 194 192 194 193 193 198 193 190 191 193 201 210 216 217 216 215 212 211 208 201 209 218 232 250 265 263 263 262 267 282 302 293 282 301 293 291 284 283 287 289 289 292
190 184 194 195 197 203 201 197 190 190 193 199 210 217 220 218 222 225 227 223 211 208 219 227 243 249 257 255 259 259 277 302 295 296 309 292 277 276 275 268 283 289 290
179 182 189 187 195 204 204 201 201 191 195 204 209 211 217 217 211 210 225 233 234 237 230 225 236 244 249 241 233 251 253 261 267 289 307 283 276 277 282 283 289 288 291
179 184 184 185 190 203 200 199 199 195 201 211 213 211 212 217 210 203 202 215 229 238 239 236 236 244 243 234 218 230 244 268 278 265 227 268 286 282 296 290 288 289 295
179 181 176 179 189 205 202 202 199 188 204 219 217 212 214 218 221 214 203 213 234 246 245 233 241 250 254 250 234 209 234 266 279 268 204 250 289 300 292 282 288 294 298
177 168 183 181 191 204 205 206 203 194 206 217 217 218 225 224 226 220 209 210 232 242 225 244 256 264 262 257 245 226 218 230 252 271 223 230 273 318 305 287 291 300 299